ATLAS 5 CENTAUR DEB, 45471

Orbit data source: Space-Track

ATLAS 5 CENTAUR DEB, 45471 is space debris in HEO originally from a launch on Wed, 17 Oct 2018 UTC launched from the Air Force Eastern Test Range (AFETR). Debris objects in space refer to the collection of defunct objects orbiting the Earth. Examples of debris include non-operational satellites, rocket bodies, and fragments generated from explosions, collisions, or faulty payload assembly.

Loading next visibility...
Identifier
45471, 2018-079BT
Orbit
HEO
Country
Flag of USUS
Related business
Flag of USUnited Launch Alliance/Lockheed Martin (US)
Manufacturer
ULA Decatur
Mission
Spacecraft
Bus & Motor
Unknown
Mass
Unknown
Launch date (UTC)
2018-10-17 (7 years ago)
Launch vehicle
Unknown
Launch site
Air Force Eastern Test Range (AFETR)
Object type
Payload
Rocket body
Debris
Shape & HBR
Unknown shape, 1.1 m
Radar Cross Section
RCS unknown

Expand to show TLE details & history
Last TLE update: 3 days ago

TLE from 3 days ago
0 ATLAS 5 CENTAUR DEB
1 45471U 18079BT  25290.76948248 -.00000074  00000-0  00000-0 0  9994
2 45471  13.1042  64.1420 4658801 253.8539  51.6100  1.77789551 38406
Epoch: 2025-10-17T18:28Z
TLE epoch observation values (Epoch: 2025-10-17T18:28:03.286Z)
Latitude
-0°
Longitude
120.58719°
Altitude
19,492.111 km
Speed
4.119 km/s
True Right ascension
04h 16m 26s
True Declination
0° 00' 00"
Sunlit
Object was in daylight at epoch
Visualization orbit readout
Latitude
Unknown
Longitude
Unknown
Altitude
Unknown
Speed
Unknown
Apparent Right ascension
Unknown
Apparent Declination
Unknown
Sunlit
N/A
Visualization observer readout
Local Sidereal Time
15:02:31
Azimuth
Unknown
Elevation
Unknown
Doppler factor
Unknown
Orbital elements
Apogee altitude
35,816.814 km
Perigee altitude
8,996.356 km
Semi-major axis
28,784.722 km
Eccentricity
0.46588
Inclination
13.1042°
RAAN
64.142°
Arg. of periapsis
253.8539°
True anomaly
106.29189°
Mean anomaly
51.61°
Eccentric anomaly
77.68917°
Mean motion
0.44443 °/min
Orbital period
810.03 mins
BSTAR
0
Loading maneuver chart data...
Computing Atmospheric mass density...

Documentation

Showing up to 5 results
|